Weather History for Crookston, MN

Change the Weather History Date:

Monday, November 5, 2012

  Actual Average Record
Temperature  
Mean Temperature 36 °F -  
Max Temperature 42 °F 38 °F 64 °F (2001)
Min Temperature 30 °F 23 °F 12 °F (2003)
Degree Days  
Heating Degree Days 29    
Moisture  
Dew Point 34 °F    
Average Humidity 92    
Maximum Humidity 100    
Minimum Humidity 70    
Precipitation  
Precipitation 0.10 in - - ()
Sea Level Pressure  
Sea Level Pressure 30.05 in    
Wind  
Wind Speed 6 mph (SSW)    
Max Wind Speed 23 mph    
Max Gust Speed 30 mph    
Visibility 7 miles    
Events Fog    
Averages and records for this station are not official NWS values.
T = Trace of Precipitation, MM = Missing Value Source: NWS Daily Summary

Daily Weather History Graph

Daily Weather History Graph

Search for Another Location

Airport:

Trip Planner

Search our weather history database for the weather conditions in past years. The results will help you decide how hot, cold, wet, or windy it might be!

Date:

Astronomy

Nov. 05, 2012 Rise Set
Actual Time 7:17 AM CST 5:01 PM CST
Civil Twilight 6:45 AM CST 5:34 PM CST
Nautical Twilight 6:08 AM CST 6:11 PM CST
Astronomical Twilight 5:32 AM CST 6:47 PM CST
Moon 10:41 PM CST (11/5) 12:38 PM CST (11/5)
Length of Visible Light 10h 49m
Length of Day
9h 43m
Waning Gibbous, 62% of the Moon is Illuminated
Nov 5
Waning Gibbous
Nov 6
Last Quarter
Nov 13
New
Nov 20
First Quarter
Nov 28
Full

Hourly Weather History & Observations

Time (CST) Temp. Windchill Dew Point Humidity Pressure Visibility Wind Dir Wind Speed Gust Speed Precip Events Conditions
12:14 AM 33.8 °F - 32.0 °F 93% 30.24 in 10.0 mi Calm Calm - N/A   Overcast
12:35 AM 33.8 °F - 32.0 °F 93% 30.24 in 10.0 mi Calm Calm - N/A   Overcast
12:54 AM 33.8 °F - 32.0 °F 93% 30.24 in 7.0 mi Calm Calm - N/A   Overcast
1:14 AM 33.8 °F - 32.0 °F 93% 30.24 in 10.0 mi Calm Calm - N/A   Overcast
1:35 AM 33.8 °F - 32.0 °F 93% 30.23 in 7.0 mi Calm Calm - N/A   Overcast
1:54 AM 33.8 °F - 32.0 °F 93% 30.23 in 7.0 mi Calm Calm - N/A   Overcast
2:14 AM 33.8 °F - 32.0 °F 93% 30.24 in 7.0 mi Calm Calm - N/A   Overcast
2:35 AM 32.0 °F 28.7 °F 32.0 °F 100% 30.24 in 7.0 mi NW 3.5 mph - N/A   Overcast
2:54 AM 32.0 °F 27.5 °F 32.0 °F 100% 30.24 in 5.0 mi NNW 4.6 mph - N/A   Overcast
3:14 AM 32.0 °F 28.7 °F 32.0 °F 100% 30.24 in 5.0 mi NE 3.5 mph - N/A   Overcast
3:35 AM 32.0 °F - 32.0 °F 100% 30.24 in 5.0 mi Calm Calm - N/A   Overcast
3:54 AM 32.0 °F - 32.0 °F 100% 30.23 in 5.0 mi Calm Calm - N/A   Overcast
4:14 AM 32.0 °F - 32.0 °F 100% 30.23 in 5.0 mi Calm Calm - N/A   Overcast
4:35 AM 32.0 °F - 32.0 °F 100% 30.23 in 5.0 mi Calm Calm - N/A   Overcast
4:54 AM 32.0 °F - 30.2 °F 93% 30.23 in 5.0 mi Calm Calm - N/A   Overcast
5:15 AM 32.0 °F - 30.2 °F 93% 30.23 in 4.0 mi Calm Calm - N/A   Overcast
5:35 AM 32.0 °F - 32.0 °F 100% 30.21 in 5.0 mi Calm Calm - N/A   Overcast
6:15 AM 32.0 °F - 32.0 °F 100% 30.21 in 5.0 mi Calm Calm - N/A   Overcast
6:35 AM 33.8 °F - 32.0 °F 93% 30.20 in 7.0 mi Calm Calm - N/A   Overcast
6:54 AM 32.0 °F 27.5 °F 32.0 °F 100% 30.20 in 5.0 mi SE 4.6 mph - N/A   Overcast
7:15 AM 33.8 °F 29.6 °F 32.0 °F 93% 30.19 in 10.0 mi SSE 4.6 mph - N/A   Overcast
7:34 AM 33.8 °F 29.6 °F 32.0 °F 93% 30.19 in 10.0 mi SE 4.6 mph - N/A   Overcast
7:54 AM 33.8 °F 29.6 °F 32.0 °F 93% 30.19 in 10.0 mi SSE 4.6 mph - N/A   Overcast
8:15 AM 32.0 °F - 30.2 °F 93% 30.19 in 10.0 mi Calm Calm - N/A   Scattered Clouds
8:34 AM 30.2 °F 25.4 °F 30.2 °F 100% 30.20 in 3.0 mi West 4.6 mph - N/A   Mostly Cloudy
8:54 AM 32.0 °F - 32.0 °F 100% 30.19 in 3.0 mi Calm Calm - N/A   Scattered Clouds
9:14 AM 33.8 °F - 32.0 °F 93% 30.19 in 5.0 mi Calm Calm - N/A   Clear
9:34 AM 33.8 °F 28.6 °F 32.0 °F 93% 30.20 in 4.0 mi West 5.8 mph - N/A   Clear
9:55 AM 30.2 °F 26.7 °F 30.2 °F 100% 30.19 in 0.2 mi West 3.5 mph - N/A Fog Light Freezing Fog
10:14 AM 33.8 °F - 32.0 °F 93% 30.18 in 0.2 mi Calm Calm - N/A Fog Fog
10:34 AM 33.8 °F - 33.8 °F 100% 30.18 in 2.0 mi Calm Calm - N/A   Mostly Cloudy
10:55 AM 35.6 °F 32.8 °F 35.6 °F 100% 30.16 in 5.0 mi SW 3.5 mph - N/A   Scattered Clouds
11:14 AM 37.4 °F 32.1 °F 33.8 °F 87% 30.15 in 10.0 mi SSW 6.9 mph - N/A   Clear
11:34 AM 39.2 °F 34.2 °F 33.8 °F 81% 30.13 in 10.0 mi SSW 6.9 mph - N/A   Clear
11:55 AM 39.2 °F 33.6 °F 35.6 °F 87% 30.11 in 10.0 mi South 8.1 mph - N/A   Clear
12:14 PM 39.2 °F 33.0 °F 35.6 °F 87% 30.10 in 10.0 mi SSW 9.2 mph 16.1 mph N/A   Scattered Clouds
12:35 PM 41.0 °F 34.3 °F 33.8 °F 76% 30.08 in 10.0 mi South 11.5 mph - N/A   Scattered Clouds
12:55 PM 41.0 °F 34.7 °F 33.8 °F 76% 30.07 in 10.0 mi SSW 10.4 mph - N/A   Scattered Clouds
1:14 PM 41.0 °F 33.1 °F 33.8 °F 76% 30.05 in 10.0 mi SSW 15.0 mph - N/A   Mostly Cloudy
1:35 PM 42.8 °F 35.4 °F 35.6 °F 76% 30.04 in 10.0 mi SSW 15.0 mph 18.4 mph N/A   Scattered Clouds
1:54 PM 42.8 °F 35.4 °F 33.8 °F 70% 30.04 in 10.0 mi SSW 15.0 mph 18.4 mph N/A   Scattered Clouds
2:14 PM 42.8 °F 35.4 °F 35.6 °F 76% 30.03 in 10.0 mi SW 15.0 mph - N/A   Mostly Cloudy
2:35 PM 41.0 °F 33.9 °F 35.6 °F 81% 30.02 in 10.0 mi SSW 12.7 mph - N/A   Overcast
2:54 PM 41.0 °F 34.3 °F 35.6 °F 81% 30.01 in 10.0 mi SSW 11.5 mph - N/A   Overcast
3:14 PM 41.0 °F 33.1 °F 35.6 °F 81% 30.00 in 10.0 mi SW 15.0 mph - N/A   Overcast
3:35 PM 41.0 °F 33.1 °F 35.6 °F 81% 29.99 in 10.0 mi SW 15.0 mph 20.7 mph N/A   Overcast
3:54 PM 41.0 °F 33.1 °F 35.6 °F 81% 29.98 in 10.0 mi SSW 15.0 mph - N/A   Overcast
4:15 PM 39.2 °F 30.5 °F 35.6 °F 87% 29.97 in 10.0 mi SW 16.1 mph - N/A   Mostly Cloudy
4:35 PM 39.2 °F 31.2 °F 35.6 °F 87% 29.96 in 10.0 mi SW 13.8 mph 19.6 mph N/A   Mostly Cloudy
4:54 PM 39.2 °F 31.2 °F 35.6 °F 87% 29.95 in 7.0 mi SW 13.8 mph - N/A   Scattered Clouds
5:15 PM 37.4 °F 28.9 °F 35.6 °F 93% 29.95 in 7.0 mi SW 13.8 mph - N/A   Clear
5:34 PM 37.4 °F 28.2 °F 35.6 °F 93% 29.94 in 7.0 mi SW 16.1 mph 20.7 mph N/A   Clear
5:54 PM 37.4 °F 27.8 °F 33.8 °F 87% 29.93 in 7.0 mi SW 17.3 mph - N/A   Scattered Clouds
6:15 PM 37.4 °F 28.9 °F 33.8 °F 87% 29.91 in 7.0 mi SSW 13.8 mph 19.6 mph N/A   Scattered Clouds
6:34 PM 37.4 °F 27.5 °F 33.8 °F 87% 29.89 in 10.0 mi South 18.4 mph - N/A   Clear
6:54 PM 37.4 °F 27.8 °F 33.8 °F 87% 29.88 in 7.0 mi South 17.3 mph 23.0 mph N/A   Clear
7:15 PM 37.4 °F 27.8 °F 33.8 °F 87% 29.87 in 10.0 mi South 17.3 mph - N/A   Scattered Clouds
7:34 PM 37.4 °F 27.8 °F 33.8 °F 87% 29.85 in 7.0 mi South 17.3 mph - N/A   Mostly Cloudy
7:54 PM 37.4 °F 27.2 °F 33.8 °F 87% 29.84 in 7.0 mi South 19.6 mph - N/A   Overcast
8:15 PM 37.4 °F 26.9 °F 35.6 °F 93% 29.83 in 7.0 mi South 20.7 mph 24.2 mph N/A   Scattered Clouds
8:34 PM 37.4 °F 27.2 °F 35.6 °F 93% 29.82 in 7.0 mi South 19.6 mph - N/A   Scattered Clouds
8:54 PM 35.6 °F 24.0 °F 35.6 °F 100% 29.81 in 5.0 mi South 23.0 mph - N/A   Scattered Clouds
9:15 PM 35.6 °F 24.5 °F 35.6 °F 100% 29.80 in 5.0 mi South 20.7 mph - 0.02 in   Scattered Clouds
9:34 PM 35.6 °F 24.8 °F 35.6 °F 100% 29.79 in 4.0 mi South 19.6 mph 26.5 mph 0.03 in   Mostly Cloudy
9:54 PM 35.6 °F 24.0 °F 35.6 °F 100% 29.76 in 3.0 mi South 23.0 mph 27.6 mph 0.01 in   Overcast
10:15 PM 35.6 °F 24.2 °F 35.6 °F 100% 29.76 in 2.0 mi South 21.9 mph 27.6 mph 0.02 in   Overcast
10:34 PM 35.6 °F 24.5 °F 35.6 °F 100% 29.74 in 2.5 mi SSW 20.7 mph 25.3 mph 0.05 in   Overcast
10:54 PM 35.6 °F 25.9 °F 35.6 °F 100% 29.73 in 3.0 mi SSW 16.1 mph 27.6 mph N/A   Overcast
11:15 PM 35.6 °F 24.5 °F 35.6 °F 100% 29.73 in 1.8 mi SSW 20.7 mph 29.9 mph 0.01 in   Overcast
11:34 PM 35.6 °F 24.5 °F 35.6 °F 100% 29.72 in 3.0 mi SSW 20.7 mph 25.3 mph 0.02 in   Overcast
11:54 PM 35.6 °F 24.8 °F 35.6 °F 100% 29.71 in 3.0 mi SSW 19.6 mph 25.3 mph N/A   Overcast